[[{"header":{"parameterUnit":"m.s-1","parameterCategory":1,"la1":30.2991,"la2":30.254,"lo1":-89.0895,"lo2":-89.0444,"dy":0.0017,"dx":0.0017,"nx":28,"ny":28,"refTime":"2023-09-01T09:00:00:Z","depth":0,"parameterNumber":2,"parameterNumberName":"U-component_of_WINDS"},"data":[0,0,0,0,0,0,0,0,0,0,0,0,0,0,0,0,0,0,0,0,0,0,0,0,0,0,0,0,0,0,0,0,0,0,0,0,0,0,0,0,0,0,0,0,0,0,0,0,0,0,0,0,0,0,0,0,0,0,1.2321,1.2321,0,1.2409,1.241,1.2411,1.2404,1.2402,1.2401,1.24,1.2488,1.2491,1.2495,0,0,0,0,0,0,0,0,0,0,0,0,0,1.2143,1.2146,1.232,1.2322,1.2323,1.2409,1.241,1.2411,1.2404,1.2402,1.24,1.2399,1.2487,1.2491,1.2495,0,0,0,0,0,0,0,0,0,0,0,0,0,1.2224,1.2147,1.232,1.2329,1.2331,1.2409,1.241,1.2412,1.2404,1.2402,1.24,1.2398,1.2485,1.249,1.2496,1.2569,0,0,1.2512,1.2514,0,0,0,0,0,0,0,0,1.222,1.2231,1.2327,1.2329,1.2331,1.2393,1.238,1.2464,1.2405,1.2376,1.24,1.2397,1.2458,1.2465,1.2486,1.2573,1.2577,1.2513,1.2516,1.2518,1.252,0,0,0,0,0,0,0,1.2214,1.2227,1.2355,1.2328,1.2331,1.2328,1.2338,1.2396,1.2427,1.2379,1.2378,1.2389,1.2458,1.2481,1.2488,1.2578,1.2512,1.2517,1.2521,1.2523,1.2729,1.2731,0,0,0,0,0,0,1.2207,1.2223,1.2353,1.2358,1.2269,1.2333,1.2344,1.2375,1.2426,1.2432,1.2391,1.2388,1.2473,1.2482,1.2491,1.258,1.2518,1.2523,1.2526,1.2727,1.2729,1.2732,0,0,0,0,0,0,1.2203,1.2218,1.2349,1.229,1.2307,1.2338,1.2374,1.2378,1.2401,1.2436,1.2441,1.2408,1.2472,1.2484,1.255,1.2583,1.2526,1.2531,1.2724,1.2727,1.2731,1.2758,0,0,0,0,0,0,1.2198,1.2217,1.2246,1.2291,1.231,1.2407,1.2376,1.2381,1.241,1.2408,1.2453,1.2459,1.2471,1.2542,1.2555,1.2589,1.2535,1.2721,1.2726,1.2729,1.2754,1.2762,1.2768,0,0,0,0,0,1.2192,1.225,1.2247,1.2263,1.2347,1.2409,1.2419,1.2433,1.2413,1.2442,1.2464,1.2457,1.2577,1.2549,1.2564,1.26,1.2719,1.2724,1.2729,1.2751,1.276,1.2768,0,0,0,0,0,0,1.2207,1.2256,1.2254,1.2328,1.2365,1.2407,1.2444,1.2442,1.2484,1.248,1.2495,1.2505,1.2571,1.2592,1.2559,1.2673,1.2645,1.2654,1.2657,1.2666,1.2673,1.2666,1.2539,0,0,0,0,0,1.2219,1.2266,1.2306,1.2368,1.2386,1.2412,1.244,1.2447,1.2485,1.25,1.2527,1.2563,1.2609,1.2639,1.2683,1.2757,1.2766,1.2789,1.2797,1.2802,1.2809,1.2849,1.2859,1.2748,1.2748,1.2748,0,0,1.2244,1.2277,1.2306,1.2372,1.2401,1.2448,1.2425,1.2477,1.2512,1.2507,1.2571,1.2593,1.2634,1.2704,1.2737,1.2724,1.2842,1.2809,1.2813,1.2816,1.2855,1.2865,1.2875,1.2752,1.2751,1.2751,0,0,1.2315,1.2345,1.2399,1.2429,1.2473,1.249,1.2503,1.2546,1.2561,1.2625,1.2623,1.2664,1.2743,1.2772,1.2798,1.2879,1.2874,1.2893,1.2929,1.2968,1.2977,1.2985,1.3013,1.3023,1.29,1.29,1.29,0,1.234,1.2413,1.2427,1.2479,1.2508,1.2507,1.2562,1.259,1.2646,1.2665,1.265,1.2749,1.2777,1.2853,1.2873,1.2894,1.2908,1.2887,1.2975,1.2983,1.299,1.3017,1.3028,1.2902,1.2902,1.2901,1.2901,0,1.2442,1.2492,1.253,1.2585,1.2619,1.2672,1.2693,1.2725,1.273,1.2748,1.2813,1.2846,1.2897,1.2916,1.292,1.2993,1.2984,1.2972,1.2944,1.3002,1.3028,1.3038,1.2905,1.2904,1.2903,1.2903,0,0,1.2523,1.2586,1.2599,1.2624,1.2673,1.2712,1.2765,1.2815,1.2841,1.288,1.2924,1.2991,1.298,1.3008,1.3016,1.3051,1.3112,1.3034,1.3035,1.3047,1.3193,1.3201,1.3212,1.3109,1.3111,1.3113,1.3189,0,1.2597,1.2692,1.2706,1.2789,1.2835,1.2835,1.2881,1.2915,1.2934,1.2975,1.2995,1.3041,1.3024,1.3041,1.3075,1.3097,1.3141,1.3092,1.3149,1.3151,1.3137,1.3226,1.3234,1.3304,1.3199,1.3201,1.3202,0,1.2697,1.2739,1.2826,1.2869,1.2888,1.2929,1.2976,1.3016,1.3055,1.3066,1.3098,1.3102,1.3155,1.3126,1.32,1.3166,1.319,1.3204,1.3207,1.3212,1.3179,1.3232,1.3327,1.3337,1.3218,1.3217,1.3215,0,1.2746,1.2825,1.2887,1.2908,1.2959,1.2988,1.3011,1.3048,1.3077,1.3118,1.3136,1.3183,1.3208,1.3243,1.3259,1.3236,1.3331,1.3303,1.334,1.334,1.3359,1.3357,1.3458,1.3377,1.3376,1.3376,1.3376,0,1.2827,1.288,1.291,1.2948,1.3007,1.3023,1.3081,1.3102,1.3135,1.3177,1.318,1.3219,1.3238,1.3279,1.3292,1.335,1.3362,1.3371,1.3373,1.337,1.3369,1.3385,1.338,1.3379,1.3378,1.3378,1.3377,0,1.2891,1.2913,1.2981,1.3024,1.3037,1.3078,1.3115,1.3151,1.317,1.3222,1.3236,1.3264,1.3313,1.3333,1.3392,1.3401,1.3467,1.3467,1.3454,1.3455,1.349,1.3486,1.3604,1.362,1.3529,1.353,1.3531,0,1.294,1.2981,1.3029,1.3058,1.3081,1.3127,1.3157,1.3175,1.3205,1.3253,1.3283,1.3333,1.3373,1.345,1.3476,1.3521,1.3521,1.3559,1.3527,1.3522,1.352,1.3517,1.352,1.3564,1.3565,1.3566,1.3567,0,1.3025,1.3034,1.3078,1.3125,1.3161,1.3199,1.3236,1.3259,1.3282,1.3316,1.3366,1.3398,1.3459,1.3507,1.3554,1.3576,1.3575,1.3577,1.3587,1.3584,1.3574,1.3578,1.3469,1.3573,1.3573,1.3572,1.3572,1.3572,1.3083,1.3119,1.3158,1.3206,1.3236,1.3271,1.3307,1.333,1.3373,1.3425,1.3432,1.3486,1.3523,1.3586,1.3611,1.3652,1.3642,1.3658,1.3661,1.3665,1.3666,1.3569,1.3661,1.3661,1.3661,1.366,1.366,0,1.3166,1.3192,1.3236,1.3288,1.3326,1.3323,1.3364,1.3395,1.3443,1.3478,1.3518,1.3575,1.3622,1.3652,1.3698,1.3726,1.3726,1.3737,1.3735,1.374,1.3674,1.3659,1.3736,1.3736,1.3736,1.3736,1.3736,1.3736,1.3214,1.3275,1.3289,1.3364,1.3389,1.3443,1.3466,1.3497,1.3526,1.359,1.363,1.3649,1.3682,1.3731,1.3773,1.3781,1.3797,1.3809,1.3815,1.3752,1.3744,1.3737,1.3723,1.3813,1.3813,1.3877,1.3878,1.3878]},{"header":{"parameterUnit":"m.s-1","parameterCategory":1,"la1":30.2991,"la2":30.254,"lo1":-89.0895,"lo2":-89.0444,"dy":0.0017,"dx":0.0017,"nx":28,"ny":28,"refTime":"2023-09-01T09:00:00:Z","depth":0,"parameterNumber":3,"parameterNumberName":"V-component_of_WINDS"},"data":[0,0,0,0,0,0,0,0,0,0,0,0,0,0,0,0,0,0,0,0,0,0,0,0,0,0,0,0,0,0,0,0,0,0,0,0,0,0,0,0,0,0,0,0,0,0,0,0,0,0,0,0,0,0,0,0,0,0,2.6836,2.6836,0,2.6878,2.6878,2.6879,2.6834,2.6832,2.683,2.6829,2.6875,2.6878,2.6881,0,0,0,0,0,0,0,0,0,0,0,0,0,2.6718,2.6721,2.6836,2.6836,2.6837,2.6878,2.6878,2.6879,2.6834,2.6832,2.683,2.6828,2.6874,2.6877,2.6881,0,0,0,0,0,0,0,0,0,0,0,0,0,2.6766,2.6721,2.6836,2.6819,2.6818,2.6877,2.6878,2.6879,2.6834,2.6832,2.6829,2.6827,2.6873,2.6877,2.6881,2.696,0,0,2.6894,2.6896,0,0,0,0,0,0,0,0,2.6763,2.677,2.6821,2.682,2.6819,2.6848,2.6854,2.6906,2.6835,2.6828,2.6828,2.6825,2.6868,2.6873,2.6886,2.6962,2.6964,2.6895,2.6897,2.6899,2.69,0,0,0,0,0,0,0,2.676,2.6768,2.6852,2.6822,2.6821,2.681,2.6814,2.6863,2.6863,2.6829,2.6826,2.6831,2.6867,2.6882,2.6887,2.6965,2.6895,2.6898,2.6901,2.6903,2.7104,2.7107,0,0,0,0,0,0,2.6758,2.6766,2.6851,2.6854,2.6784,2.6814,2.6819,2.6841,2.6862,2.6862,2.6833,2.6829,2.6876,2.6882,2.6889,2.698,2.6899,2.6903,2.6906,2.7101,2.7105,2.7108,0,0,0,0,0,0,2.6756,2.6766,2.6849,2.6809,2.6818,2.6819,2.6845,2.6844,2.6858,2.6865,2.6865,2.6849,2.6875,2.6883,2.6942,2.6981,2.6905,2.6909,2.7098,2.7102,2.7106,2.7164,0,0,0,0,0,0,2.6753,2.6766,2.6795,2.681,2.6821,2.6901,2.6847,2.6846,2.6866,2.686,2.688,2.688,2.6873,2.6935,2.6946,2.6985,2.6912,2.7094,2.71,2.7105,2.7159,2.717,2.718,0,0,0,0,0,2.6748,2.6812,2.6797,2.6808,2.6858,2.6904,2.691,2.69,2.6869,2.6899,2.6902,2.688,2.6975,2.6942,2.6953,2.6995,2.7092,2.7098,2.7104,2.7154,2.7168,2.7179,0,0,0,0,0,0,2.6804,2.6813,2.6797,2.6867,2.6885,2.6896,2.6934,2.6915,2.6943,2.6937,2.6923,2.6928,2.699,2.6998,2.6961,2.707,2.7028,2.7037,2.7063,2.7076,2.7086,2.7082,2.6916,0,0,0,0,0,2.6824,2.686,2.6866,2.6927,2.6936,2.6933,2.6953,2.6943,2.6961,2.6969,2.6977,2.6997,2.7031,2.7054,2.7086,2.716,2.7163,2.7194,2.7204,2.7213,2.722,2.7258,2.7271,2.7128,2.7128,2.7128,0,0,2.6867,2.6876,2.69,2.6938,2.6951,2.6988,2.694,2.6983,2.701,2.6976,2.7031,2.7038,2.7059,2.7125,2.7155,2.7134,2.726,2.7221,2.7227,2.723,2.7266,2.7279,2.7291,2.7132,2.7132,2.7131,0,0,2.6962,2.6974,2.7024,2.7037,2.7055,2.7052,2.7064,2.7078,2.7081,2.7136,2.711,2.7143,2.7202,2.7217,2.7233,2.7331,2.7311,2.7342,2.7396,2.7433,2.7444,2.7454,2.7487,2.75,2.735,2.735,2.735,0,2.7013,2.7067,2.7053,2.7095,2.7113,2.7081,2.7132,2.7145,2.7175,2.7187,2.7163,2.7235,2.7247,2.7315,2.7338,2.7353,2.7366,2.734,2.7443,2.7453,2.7462,2.7494,2.7507,2.7353,2.7353,2.7353,2.7352,0,2.7128,2.7166,2.7204,2.723,2.7251,2.7298,2.7291,2.7314,2.7302,2.7301,2.7357,2.7369,2.7402,2.7418,2.7407,2.7484,2.747,2.7445,2.7402,2.7479,2.7509,2.7521,2.7358,2.7357,2.7356,2.7355,0,0,2.7262,2.7276,2.7291,2.7301,2.7318,2.7347,2.7392,2.7422,2.7441,2.7462,2.7499,2.7548,2.7524,2.7541,2.7532,2.7564,2.7639,2.7535,2.7535,2.7553,2.7723,2.7741,2.7755,2.7625,2.7628,2.763,2.772,0,2.7357,2.7432,2.7419,2.7493,2.7526,2.7496,2.7534,2.7549,2.7549,2.7578,2.7579,2.7614,2.758,2.759,2.7621,2.7623,2.7673,2.7617,2.7659,2.7661,2.7654,2.7771,2.7791,2.7876,2.7732,2.7734,2.7735,0,2.7478,2.75,2.7576,2.7585,2.7598,2.7633,2.7658,2.7687,2.7702,2.77,2.7718,2.7701,2.7746,2.7702,2.7762,2.7725,2.7741,2.7745,2.7748,2.7751,2.7703,2.7777,2.7903,2.7916,2.7754,2.7752,2.7751,0,2.7566,2.7615,2.7666,2.7676,2.7688,2.7713,2.7719,2.7731,2.7749,2.7772,2.7783,2.7811,2.7826,2.7848,2.784,2.7809,2.7901,2.7858,2.7901,2.7901,2.7922,2.792,2.8052,2.7933,2.7933,2.7933,2.7933,0,2.7673,2.7721,2.7705,2.7737,2.7789,2.7773,2.7825,2.7828,2.7838,2.787,2.7846,2.7876,2.7863,2.7893,2.7887,2.7937,2.7944,2.7944,2.7941,2.7945,2.7945,2.7956,2.795,2.7936,2.7936,2.7935,2.7934,0,2.7781,2.7772,2.7826,2.7831,2.7834,2.7872,2.7877,2.7906,2.7903,2.7943,2.7952,2.7948,2.7981,2.7974,2.8012,2.8007,2.807,2.8061,2.8064,2.8062,2.8104,2.81,2.8247,2.8265,2.8135,2.8137,2.8138,0,2.785,2.7885,2.7893,2.7911,2.7919,2.7949,2.7966,2.7951,2.797,2.7989,2.8016,2.8046,2.807,2.8124,2.8125,2.8153,2.8144,2.8193,2.8148,2.815,2.8144,2.8141,2.8144,2.8203,2.8204,2.8205,2.8206,0,2.7972,2.7965,2.799,2.8013,2.8033,2.8051,2.8067,2.8084,2.807,2.8093,2.8125,2.8143,2.8179,2.8209,2.8234,2.8242,2.8222,2.822,2.8231,2.8236,2.8236,2.8236,2.8088,2.8217,2.8216,2.8215,2.8215,2.8214,2.8062,2.8091,2.81,2.8128,2.8137,2.8152,2.8179,2.8178,2.8204,2.8231,2.822,2.8257,2.8269,2.8301,2.8311,2.8339,2.8321,2.8338,2.8342,2.8346,2.8351,2.8231,2.8344,2.8344,2.8343,2.8343,2.8343,0,2.8182,2.8186,2.8211,2.8232,2.8254,2.8231,2.8246,2.8266,2.8298,2.831,2.8333,2.8369,2.8397,2.84,2.8426,2.8449,2.844,2.8456,2.8455,2.8456,2.8366,2.8353,2.8463,2.8463,2.8463,2.8463,2.8463,2.8463,2.8248,2.8294,2.8288,2.8339,2.8342,2.8376,2.8387,2.84,2.8409,2.845,2.8472,2.8472,2.8481,2.8507,2.8532,2.8532,2.8543,2.8562,2.8559,2.8475,2.8463,2.8452,2.8439,2.8565,2.8565,2.8647,2.8647,2.8648]}]]